Flag for U.S.A. Weather past 2 weeks in Raleigh, North Carolina, U.S.A.

Now
84 °F

Passing clouds.


Feels Like: 90 °F
Forecast: 69 / 91 °F
Wind: 3 mph from Southwest

Location: Raleigh-Durham International Airport

Current Time: Jul 7, 2015 at 12:04:48 PM

Latest Report: Jul 7, 2015 at 10:51 AM


Visibility: 10 mi

Pressure: 30.11 "Hg

Humidity: 67%

Dew point: 72 °F

Location of RaleighLocation

Historic Weather in Raleigh — Graph

°F

Raleigh temperature yesterday

Maximum temperature yesterday: 89 °F (at 3:51 PM)
Minimum temperature yesterday: 70 °F (at 2:51 AM)
Average temperature yesterday: 79 °F

Past Weeks' High & Low Weather Summary

 TemperatureHumidityPressure
High97 °F (Jun 23, 2:51 PM)97% (Jun 29, 4:51 AM)30.16 "Hg (Jun 29, 4:51 AM)
Low60 °F (Jun 29, 5:51 AM)37% (Jun 22, 4:51 PM)29.74 "Hg (Jun 28, 2:51 AM)
Average79 °F73%29.96 "Hg
* Reported Jun 22 10:51 AM — Jul 7 10:51 AM, Raleigh, Weather by CustomWeather, © 2015

Note: Actual official high and low records may vary slightly from our data, if they occured in-between our weather recording intervals... More about our weather records

Advertising

Raleigh weather history for previous 24 hours

 ConditionsComfort  
Time TempWeatherWind HumidityBarometerVisibility
10:51 AM
Tue, Jul 7
84 °FPassing clouds.3 mph67%30.11 "Hg10 mi
9:51 AM81 °FScattered clouds.5 mph74%30.13 "Hg10 mi
8:51 AM78 °FScattered clouds.6 mph82%30.13 "Hg10 mi
7:51 AM75 °FScattered clouds.6 mph88%30.11 "Hg10 mi
6:51 AM73 °FPassing clouds.No wind90%30.10 "Hg10 mi
5:51 AM72 °FPassing clouds.3 mph91%30.08 "Hg10 mi
4:51 AM71 °FPassing clouds.No wind87%30.07 "Hg10 mi
3:51 AM72 °FPassing clouds.3 mph84%30.07 "Hg10 mi
2:51 AM72 °FPassing clouds.No wind81%30.07 "Hg10 mi
1:51 AM74 °FPassing clouds.6 mph76%30.06 "Hg10 mi
12:51 AM73 °FPartly cloudy.6 mph81%30.09 "Hg10 mi
11:51 PM
Mon, Jul 6
77 °FPartly cloudy.3 mph69%30.09 "Hg10 mi
10:51 PM75 °FPassing clouds.3 mph79%30.07 "Hg10 mi
9:51 PM79 °FPassing clouds.7 mph67%30.06 "Hg10 mi
8:51 PM80 °FBroken clouds.7 mph67%30.06 "Hg10 mi
7:51 PM84 °FBroken clouds.8 mph59%30.05 "Hg10 mi
6:51 PM85 °FBroken clouds.12 mph59%30.05 "Hg10 mi
5:51 PM89 °FBroken clouds.12 mph50%30.05 "Hg10 mi
4:51 PM89 °FScattered clouds.10 mph50%30.05 "Hg10 mi
3:51 PM89 °FScattered clouds.14 mph52%30.06 "Hg10 mi
2:51 PM88 °FScattered clouds.13 mph52%30.07 "Hg10 mi
1:51 PM87 °FScattered clouds.14 mph57%30.09 "Hg10 mi
12:51 PM85 °FScattered clouds.12 mph61%30.11 "Hg10 mi
Weather by CustomWeather, © 2015

See weather overviewHow to use our weather pages